ACA169 KLGA-CYUL

Flight info

Callsign ACA169
Flight time 1h 3m
Altitude 37000
Route GREKI DCT JUDDS DCT CAM DCT JASDU DCT PBERG CARTR5
Aircraft A320/M-SDE3FGHIRWY/LB1

Departure

Time 2026-05-03 23:34
Airport LaGuardia Airport (KLGA)

Arrival

Time 2026-05-04 00:38
Airport Montreal / Pierre Elliott Trudeau International Airport (CYUL)
Time Latitude Longitude Altitude Speed Heading
2026-05-03 23:21 40.77144 -73.86365 26 ft 0 kts 161°
2026-05-03 23:28 40.77157 -73.86371 31 ft 2 kts 161°
2026-05-03 23:28 40.77173 -73.86381 31 ft 3 kts 130°
2026-05-03 23:28 40.77182 -73.86401 29 ft 3 kts 93°
2026-05-03 23:28 40.77180 -73.86424 30 ft 1 kts 60°
2026-05-03 23:29 40.77180 -73.86425 30 ft 0 kts 60°
2026-05-03 23:30 40.77180 -73.86424 30 ft 1 kts 60°
2026-05-03 23:31 40.77185 -73.86413 29 ft 1 kts 60°
2026-05-03 23:31 40.77191 -73.86402 29 ft 5 kts 50°
2026-05-03 23:31 40.77242 -73.86342 28 ft 10 kts 41°
2026-05-03 23:31 40.77325 -73.86262 25 ft 16 kts 35°
2026-05-03 23:32 40.77315 -73.86165 25 ft 14 kts 129°
2026-05-03 23:32 40.77256 -73.86051 25 ft 14 kts 122°
2026-05-03 23:32 40.77194 -73.85924 26 ft 15 kts 124°
2026-05-03 23:32 40.77146 -73.85823 25 ft 9 kts 103°
2026-05-03 23:33 40.77206 -73.85756 22 ft 14 kts
2026-05-03 23:33 40.77245 -73.85790 22 ft 0 kts 300°
2026-05-03 23:33 40.77249 -73.85799 22 ft 7 kts 300°
2026-05-03 23:34 40.77437 -73.86196 22 ft 97 kts 302°
2026-05-03 23:34 40.77915 -73.87219 260 ft 147 kts 302°
2026-05-03 23:34 40.78510 -73.88466 890 ft 169 kts 301°
2026-05-03 23:34 40.79147 -73.89739 2031 ft 168 kts 308°
2026-05-03 23:35 40.80250 -73.90510 2776 ft 203 kts 351°
2026-05-03 23:35 40.81700 -73.89993 3503 ft 234 kts 24°
2026-05-03 23:35 40.83134 -73.88727 4022 ft 260 kts 31°
2026-05-03 23:35 40.84574 -73.87255 4872 ft 269 kts 32°
2026-05-03 23:36 40.86059 -73.85734 5904 ft 271 kts 31°
2026-05-03 23:36 40.87600 -73.84224 6905 ft 273 kts 29°
2026-05-03 23:36 40.89136 -73.82793 7884 ft 274 kts 27°
2026-05-03 23:36 40.90714 -73.81374 8903 ft 275 kts 26°
2026-05-03 23:37 40.92313 -73.79974 9906 ft 276 kts 25°
2026-05-03 23:37 40.93955 -73.78557 10492 ft 292 kts 25°
2026-05-03 23:37 40.95722 -73.77047 10917 ft 310 kts 26°
2026-05-03 23:37 40.97554 -73.75474 11648 ft 317 kts 26°
2026-05-03 23:38 40.99408 -73.73867 12444 ft 321 kts 27°
2026-05-03 23:38 41.01287 -73.72231 13241 ft 326 kts 27°
2026-05-03 23:38 41.03191 -73.70575 13994 ft 330 kts 27°
2026-05-03 23:38 41.05127 -73.68894 14678 ft 335 kts 27°
2026-05-03 23:39 41.07086 -73.67195 15327 ft 339 kts 27°
2026-05-03 23:39 41.09078 -73.65470 15992 ft 344 kts 27°
2026-05-03 23:39 41.11100 -73.63720 16643 ft 349 kts 27°
2026-05-03 23:39 41.13140 -73.61946 17309 ft 354 kts 27°
2026-05-03 23:40 41.15210 -73.60142 17993 ft 358 kts 27°
2026-05-03 23:40 41.17310 -73.58312 18560 ft 363 kts 27°
2026-05-03 23:40 41.19435 -73.56464 19134 ft 367 kts 27°
2026-05-03 23:40 41.21585 -73.54596 19719 ft 371 kts 27°
2026-05-03 23:41 41.23758 -73.52704 20304 ft 375 kts 26°
2026-05-03 23:41 41.25954 -73.50787 20895 ft 379 kts 26°
2026-05-03 23:41 41.28169 -73.48847 21469 ft 383 kts 26°
2026-05-03 23:41 41.30404 -73.46888 22039 ft 387 kts 26°
2026-05-03 23:42 41.32671 -73.44904 22609 ft 391 kts 26°
2026-05-03 23:42 41.34955 -73.42905 23179 ft 395 kts 26°
2026-05-03 23:42 41.37255 -73.40888 23689 ft 399 kts 27°
2026-05-03 23:42 41.39584 -73.38841 24160 ft 402 kts 27°
2026-05-03 23:43 41.41927 -73.36775 24633 ft 405 kts 27°
2026-05-03 23:43 41.44286 -73.34691 25093 ft 408 kts 27°
2026-05-03 23:43 41.46660 -73.32595 25566 ft 411 kts 27°
2026-05-03 23:43 41.48929 -73.30198 25993 ft 422 kts 38°
2026-05-03 23:44 41.50996 -73.27463 26417 ft 426 kts 39°
2026-05-03 23:44 41.53104 -73.24661 26842 ft 429 kts 39°
2026-05-03 23:44 41.55248 -73.21806 27252 ft 431 kts 39°
2026-05-03 23:44 41.57377 -73.18964 27659 ft 434 kts 39°
2026-05-03 23:45 41.59619 -73.16293 28052 ft 430 kts 30°
2026-05-03 23:45 41.62150 -73.14223 28438 ft 424 kts 19°
2026-05-03 23:45 41.64887 -73.12816 28808 ft 418 kts
2026-05-03 23:45 41.67669 -73.12086 28913 ft 405 kts 359°
2026-05-03 23:46 41.70396 -73.12011 28921 ft 380 kts 349°
2026-05-03 23:46 41.72971 -73.12427 28912 ft 369 kts 346°
2026-05-03 23:46 41.78045 -73.13318 28911 ft 366 kts 346°
2026-05-03 23:47 41.83100 -73.14173 28909 ft 366 kts 346°
2026-05-03 23:47 41.88162 -73.15034 28899 ft 367 kts 347°
2026-05-03 23:48 41.93227 -73.15894 28897 ft 367 kts 347°
2026-05-03 23:48 41.98288 -73.16760 28892 ft 367 kts 347°
2026-05-03 23:49 42.03353 -73.17634 28884 ft 367 kts 347°
2026-05-03 23:49 42.08418 -73.18503 28872 ft 367 kts 347°
2026-05-03 23:50 42.13459 -73.19369 28867 ft 368 kts 347°
2026-05-03 23:50 42.18537 -73.20241 28862 ft 368 kts 347°
2026-05-03 23:51 42.23608 -73.21123 28861 ft 368 kts 347°
2026-05-03 23:51 42.28683 -73.22010 28860 ft 368 kts 347°
2026-05-03 23:52 42.33769 -73.22892 28864 ft 368 kts 347°
2026-05-03 23:52 42.38856 -73.23775 28866 ft 369 kts 347°
2026-05-03 23:53 42.43944 -73.24661 28867 ft 369 kts 347°
2026-05-03 23:53 42.49035 -73.25545 28864 ft 369 kts 347°
2026-05-03 23:54 42.54126 -73.26427 28864 ft 369 kts 348°
2026-05-03 23:54 42.59177 -73.27307 28865 ft 369 kts 347°
2026-05-03 23:55 42.64268 -73.28200 28867 ft 369 kts 348°
2026-05-03 23:55 42.69354 -73.29100 28866 ft 368 kts 348°
2026-05-03 23:56 42.74439 -73.29995 28865 ft 368 kts 348°
2026-05-03 23:56 42.79524 -73.30887 28855 ft 368 kts 348°
2026-05-03 23:57 42.84601 -73.31774 28855 ft 368 kts 348°
2026-05-03 23:57 42.89674 -73.32672 28858 ft 368 kts 348°
2026-05-03 23:58 42.94754 -73.33570 28856 ft 368 kts 348°
2026-05-03 23:58 42.99822 -73.34466 28860 ft 368 kts 349°
2026-05-03 23:59 43.04937 -73.35038 28863 ft 369 kts 352°
2026-05-03 23:59 43.10073 -73.35408 28864 ft 369 kts 352°
2026-05-04 00:00 43.15167 -73.35804 28865 ft 369 kts 352°
2026-05-04 00:00 43.20286 -73.36253 28862 ft 368 kts 351°
2026-05-04 00:01 43.25403 -73.36720 28862 ft 368 kts 351°
2026-05-04 00:01 43.30511 -73.37185 28857 ft 368 kts 352°
2026-05-04 00:02 43.35613 -73.37647 28859 ft 367 kts 352°
2026-05-04 00:02 43.40710 -73.38110 28857 ft 367 kts 352°
2026-05-04 00:03 43.45803 -73.38574 28870 ft 367 kts 352°
2026-05-04 00:03 43.50902 -73.39035 28858 ft 367 kts 352°
2026-05-04 00:04 43.55997 -73.39487 28845 ft 367 kts 352°
2026-05-04 00:04 43.61054 -73.39942 28854 ft 366 kts 352°
2026-05-04 00:05 43.66135 -73.40414 28858 ft 367 kts 352°
2026-05-04 00:05 43.71231 -73.40883 28850 ft 366 kts 351°
2026-05-04 00:06 43.76308 -73.41438 28847 ft 366 kts 351°
2026-05-04 00:06 43.81394 -73.42039 28854 ft 366 kts 351°
2026-05-04 00:07 43.86478 -73.42626 28853 ft 366 kts 351°
2026-05-04 00:07 43.91557 -73.43200 28846 ft 366 kts 351°
2026-05-04 00:08 43.96637 -73.43780 28851 ft 366 kts 351°
2026-05-04 00:08 44.01719 -73.44363 28858 ft 366 kts 351°
2026-05-04 00:09 44.06797 -73.44947 28855 ft 366 kts 351°
2026-05-04 00:09 44.11880 -73.45533 28835 ft 368 kts 351°
2026-05-04 00:10 44.14444 -73.45828 28276 ft 371 kts 351°
2026-05-04 00:10 44.16993 -73.46120 27864 ft 364 kts 351°
2026-05-04 00:10 44.19503 -73.46406 27459 ft 359 kts 351°
2026-05-04 00:10 44.21971 -73.46684 27056 ft 354 kts 351°
2026-05-04 00:11 44.24411 -73.46961 26650 ft 349 kts 351°
2026-05-04 00:11 44.26788 -73.47232 26241 ft 345 kts 351°
2026-05-04 00:11 44.29168 -73.47510 25831 ft 341 kts 351°
2026-05-04 00:11 44.31520 -73.47785 25410 ft 338 kts 350°
2026-05-04 00:12 44.33850 -73.48056 24995 ft 335 kts 350°
2026-05-04 00:12 44.35810 -73.48281 24638 ft 332 kts 350°
2026-05-04 00:12 44.38104 -73.48540 24204 ft 329 kts 350°
2026-05-04 00:12 44.40377 -73.48799 23780 ft 326 kts 350°
2026-05-04 00:13 44.42630 -73.49061 23345 ft 324 kts 350°
2026-05-04 00:13 44.44868 -73.49323 22878 ft 322 kts 350°
2026-05-04 00:13 44.47120 -73.49584 22461 ft 318 kts 350°
2026-05-04 00:13 44.49280 -73.49837 22067 ft 314 kts 350°
2026-05-04 00:14 44.51448 -73.50091 21667 ft 311 kts 350°
2026-05-04 00:14 44.53591 -73.50344 21280 ft 308 kts 350°
2026-05-04 00:14 44.55711 -73.50593 20894 ft 305 kts 350°
2026-05-04 00:14 44.57821 -73.50841 20514 ft 302 kts 350°
2026-05-04 00:15 44.59905 -73.51087 20136 ft 300 kts 350°
2026-05-04 00:15 44.61976 -73.51329 19762 ft 298 kts 350°
2026-05-04 00:15 44.64034 -73.51564 19395 ft 296 kts 350°
2026-05-04 00:15 44.66077 -73.51799 19030 ft 294 kts 350°
2026-05-04 00:16 44.68109 -73.52032 18659 ft 293 kts 350°
2026-05-04 00:16 44.70141 -73.52268 18266 ft 293 kts 350°
2026-05-04 00:16 44.72167 -73.52507 17840 ft 292 kts 350°
2026-05-04 00:16 44.74186 -73.52748 17503 ft 289 kts 350°
2026-05-04 00:17 44.76165 -73.52983 17228 ft 284 kts 350°
2026-05-04 00:17 44.78130 -73.53218 16861 ft 282 kts 350°
2026-05-04 00:17 44.80078 -73.53451 16506 ft 281 kts 350°
2026-05-04 00:17 44.82024 -73.53683 16136 ft 280 kts 350°
2026-05-04 00:18 44.83961 -73.53918 15780 ft 280 kts 350°
2026-05-04 00:18 44.85900 -73.54153 15415 ft 279 kts 350°
2026-05-04 00:18 44.87835 -73.54375 15061 ft 279 kts 351°
2026-05-04 00:18 44.89770 -73.54587 14696 ft 279 kts 351°
2026-05-04 00:19 44.91704 -73.54796 14345 ft 279 kts 351°
2026-05-04 00:19 44.93637 -73.55004 13984 ft 279 kts 351°
2026-05-04 00:19 44.95551 -73.55213 13625 ft 279 kts 351°
2026-05-04 00:19 44.97487 -73.55423 13227 ft 279 kts 351°
2026-05-04 00:20 44.99416 -73.55633 12855 ft 278 kts 351°
2026-05-04 00:20 45.01338 -73.55848 12481 ft 276 kts 351°
2026-05-04 00:20 45.03250 -73.56063 12116 ft 275 kts 351°
2026-05-04 00:20 45.05152 -73.56277 11743 ft 274 kts 351°
2026-05-04 00:21 45.07048 -73.56489 11366 ft 273 kts 351°
2026-05-04 00:21 45.08302 -73.56628 11116 ft 272 kts 351°
2026-05-04 00:21 45.10184 -73.56833 10837 ft 270 kts 351°
2026-05-04 00:21 45.12068 -73.57039 10671 ft 272 kts 351°
2026-05-04 00:22 45.14587 -73.57316 10428 ft 271 kts 351°
2026-05-04 00:22 45.15834 -73.57453 10306 ft 271 kts 351°
2026-05-04 00:22 45.17709 -73.57658 10122 ft 270 kts 351°
2026-05-04 00:22 45.19583 -73.57863 9941 ft 270 kts 351°
2026-05-04 00:23 45.21455 -73.58069 9754 ft 269 kts 351°
2026-05-04 00:23 45.23321 -73.58276 9556 ft 269 kts 351°
2026-05-04 00:23 45.25187 -73.58484 9369 ft 269 kts 351°
2026-05-04 00:23 45.27049 -73.58692 9182 ft 268 kts 351°
2026-05-04 00:24 45.28886 -73.58895 9005 ft 268 kts 351°
2026-05-04 00:24 45.30751 -73.59101 8606 ft 271 kts 351°
2026-05-04 00:24 45.32640 -73.59311 8153 ft 271 kts 351°
2026-05-04 00:24 45.34522 -73.59521 7704 ft 270 kts 351°
2026-05-04 00:25 45.36402 -73.59729 7221 ft 271 kts 351°
2026-05-04 00:25 45.38294 -73.59767 6757 ft 275 kts
2026-05-04 00:25 45.40154 -73.59058 6279 ft 281 kts 20°
2026-05-04 00:25 45.41826 -73.57624 5901 ft 280 kts 31°
2026-05-04 00:26 45.43438 -73.56069 5442 ft 279 kts 30°
2026-05-04 00:26 45.45039 -73.54527 5017 ft 278 kts 30°
2026-05-04 00:26 45.46638 -73.52988 4534 ft 277 kts 31°
2026-05-04 00:26 45.48208 -73.51474 4303 ft 268 kts 31°
2026-05-04 00:27 45.49715 -73.50019 4167 ft 254 kts 30°
2026-05-04 00:27 45.51145 -73.48635 4064 ft 242 kts 30°
2026-05-04 00:27 45.52505 -73.47320 3956 ft 231 kts 30°
2026-05-04 00:27 45.53821 -73.46051 3900 ft 227 kts 30°
2026-05-04 00:28 45.55126 -73.44795 3853 ft 226 kts 30°
2026-05-04 00:28 45.56425 -73.43524 3792 ft 227 kts 35°
2026-05-04 00:28 45.57608 -73.42015 3667 ft 228 kts 39°
2026-05-04 00:28 45.58769 -73.40482 3599 ft 227 kts 39°
2026-05-04 00:29 45.59927 -73.38942 3553 ft 227 kts 40°
2026-05-04 00:29 45.61134 -73.37498 3502 ft 225 kts 29°
2026-05-04 00:29 45.62551 -73.36646 3451 ft 219 kts
2026-05-04 00:29 45.64030 -73.36773 3393 ft 211 kts 336°
2026-05-04 00:30 45.65198 -73.37877 3340 ft 199 kts 308°
2026-05-04 00:30 45.65927 -73.39526 3300 ft 196 kts 292°
2026-05-04 00:30 45.66307 -73.41374 3240 ft 192 kts 279°
2026-05-04 00:30 45.66475 -73.43229 3219 ft 186 kts 274°
2026-05-04 00:31 45.66455 -73.45062 3167 ft 184 kts 267°
2026-05-04 00:31 45.66365 -73.46878 3065 ft 182 kts 266°
2026-05-04 00:31 45.66257 -73.48682 2992 ft 182 kts 262°
2026-05-04 00:31 45.65812 -73.50373 2977 ft 184 kts 239°
2026-05-04 00:32 45.64946 -73.51718 2979 ft 184 kts 226°
2026-05-04 00:32 45.64019 -73.52938 2979 ft 184 kts 226°
2026-05-04 00:32 45.63081 -73.54176 2981 ft 183 kts 226°
2026-05-04 00:32 45.62170 -73.55377 2964 ft 169 kts 226°
2026-05-04 00:33 45.61352 -73.56456 2986 ft 158 kts 226°
2026-05-04 00:33 45.59767 -73.58548 2983 ft 154 kts 226°
2026-05-04 00:33 45.58982 -73.59583 2943 ft 153 kts 226°
2026-05-04 00:34 45.58200 -73.60614 2797 ft 153 kts 226°
2026-05-04 00:34 45.57417 -73.61646 2613 ft 153 kts 227°
2026-05-04 00:34 45.56640 -73.62669 2413 ft 152 kts 226°
2026-05-04 00:34 45.55863 -73.63691 2201 ft 152 kts 226°
2026-05-04 00:35 45.55090 -73.64709 2000 ft 151 kts 226°
2026-05-04 00:35 45.54322 -73.65718 1794 ft 148 kts 226°
2026-05-04 00:35 45.53565 -73.66714 1589 ft 147 kts 225°
2026-05-04 00:35 45.52817 -73.67696 1395 ft 146 kts 225°
2026-05-04 00:36 45.52072 -73.68674 1186 ft 146 kts 225°
2026-05-04 00:36 45.51327 -73.69654 975 ft 145 kts 224°
2026-05-04 00:36 45.50584 -73.70624 772 ft 145 kts 223°
2026-05-04 00:36 45.49841 -73.71580 587 ft 143 kts 223°
2026-05-04 00:37 45.49110 -73.72541 401 ft 142 kts 224°
2026-05-04 00:37 45.48392 -73.73494 222 ft 141 kts 223°
2026-05-04 00:37 45.47704 -73.74398 113 ft 122 kts 224°
2026-05-04 00:37 45.47208 -73.75053 112 ft 74 kts 223°
2026-05-04 00:38 45.46926 -73.75438 108 ft 43 kts 218°
2026-05-04 00:38 45.46703 -73.75597 111 ft 30 kts 192°
2026-05-04 00:38 45.46529 -73.75655 112 ft 16 kts 195°
2026-05-04 00:38 45.46421 -73.75693 109 ft 18 kts 192°
2026-05-04 00:39 45.46295 -73.75726 106 ft 18 kts 190°
2026-05-04 00:39 45.46180 -73.75724 106 ft 15 kts 182°
2026-05-04 00:39 45.46083 -73.75714 104 ft 12 kts 168°
2026-05-04 00:39 45.46051 -73.75667 103 ft 3 kts 117°
2026-05-04 00:40 45.46037 -73.75645 103 ft 7 kts 144°
2026-05-04 00:40 45.45987 -73.75634 106 ft 6 kts 177°
2026-05-04 00:40 45.45965 -73.75632 106 ft 0 kts 178°